User: anonymous   Login
Location: Unspecified
(0.0000°N, 0.0000°E)
Time: 13:41:43
(UTC+00:00)
Language:

USA 200 - Orbit

View from above orbital plane
View from above orbital plane
View from above satellite
View from above satellite

Ground track
Ground track

The orbit data is extracted from the following two-line orbital elements,

1 32706U 08010A   17283.46642873 -.00000608  00000-0  00000-0 0    06
2 32706  63.5091 330.7455 7127402 271.3178  15.2506  2.00572703    08
Epoch (UTC): 10 October 2017 11:11:39
Eccentricity: 0.7127402
inclination: 63.5091°
perigee height: 1251 km
apogee height: 39111 km
right ascension of ascending node: 330.7455°
argument of perigee: 271.3178°
revolutions per day: 2.00572703
mean anomaly at epoch: 15.2506°
orbit number at epoch: 0

The dashed part of the orbit path shows where the satellite is in the earth's shadow,  

DLR